Location: ??????
(54.4575°N, 39.2809°E)
Time: 14:02:04
(UTC+00:00)

Daily predictions for brighter satellites

Satellite Brightness Start Highest point End
(mag) Time Altitude Azimuth Time Altitude Azimuth Time Altitude Azimuth
NOSS 3-3 (A) 4.2 17:53:38 10° S 17:58:28 39° ESE 18:04:12 10° NE
CZ-2C R/B 3.8 17:59:06 10° ESE 18:01:08 19° ENE 18:03:11 10° NNE
Cosmos 1725 Rocket 4.1 17:55:12 10° S 18:01:27 86° E 18:07:44 10° NNE
DEBRIS 3.7 17:59:59 10° SW 18:02:50 39° SSE 18:10:07 10° E
Okean-O 2.6 17:59:22 10° SSE 18:03:45 90° ENE 18:08:10 10° NNW
Cosmos 2228 2.9 18:00:13 10° S 18:04:17 66° E 18:08:21 10° NNE
Tsikada Rocket 4.0 17:58:30 10° N 18:04:44 88° E 18:10:54 10° S
Cosmos 1452 Rocket 3.6 18:00:00 10° SSW 18:05:14 84° WNW 18:10:31 10° NNE
DNEPR-1 R/B 4.4 18:00:06 10° NW 18:05:15 70° NE 18:11:33 10° ESE
Cosmos 1437 Rocket 3.9 18:03:09 10° SE 18:05:58 22° E 18:08:49 10° NE
Meteor 1-27 4.3 18:03:52 10° SSW 18:09:31 89° ESE 18:15:08 10° NNE
Cosmos 2278 4.0 18:04:48 10° NNW 18:10:31 64° NE 18:16:11 10° SE
ADEOS 4.3 18:06:24 10° S 18:11:29 52° W 18:16:36 10° NNW
USA 186 1.5 18:09:39 10° S 18:12:21 76° WSW 18:15:08 10° NNW
Cosmos 1758 Rocket 3.7 18:09:05 10° N 18:13:28 66° ENE 18:17:51 10° SSE
SL-16 R/B 2.3 18:09:55 10° NNW 18:15:38 81° NE 18:21:20 10° SE
Cosmos 1302 Rocket 4.0 18:10:32 10° SSW 18:15:42 79° ESE 18:20:56 10° NNE
ISS -3.4 18:13:23 10° WSW 18:16:35 43° SSE 18:19:47 10° E
Cosmos 2016 Rocket 4.1 18:10:39 10° SSW 18:16:54 83° WNW 18:23:07 10° N
CZ-4C R/B 2.1 18:12:28 10° SW 18:16:58 78° NW 18:22:53 10° NE
EP 1 4.3 18:15:39 10° NW 18:18:17 69° NE 18:20:50 11° ESE
Cosmos 724 4.3 18:12:50 10° SW 18:18:52 86° SE 18:24:48 10° NE
NOSS 3 (A) 4.2 18:18:20 10° NW 18:20:22 55° NE 18:22:49 11° ESE
SL-08 R/B 3.4 18:17:45 10° NNE 18:22:38 86° WNW 18:27:24 10° SSW
CZ-4B R/B 2.5 18:20:10 10° SSE 18:23:30 67° ENE 18:26:59 10° N
NOSS 3-3 (C) 3.9 18:24:21 10° SSW 18:29:29 51° SE 18:35:39 10° NE
COSMOS 2406 3.5 18:24:27 10° S 18:29:56 48° ESE 18:35:25 10° NE
Cosmos 1980 Rocket 4.1 18:27:33 10° NW 18:32:04 25° WSW 18:36:33 10° SSW
USA 306 1.5 18:29:30 10° WSW 18:32:24 49° SSE 18:34:18 10° E
Meteor 1-20 Rocket 4.2 18:26:53 10° NNW 18:32:30 86° ENE 18:38:10 10° SSE
Terra 3.6 18:31:19 10° SSW 18:35:20 28° W 18:39:23 10° NNW
Helios 1A Rocket 4.5 18:34:07 10° N 18:36:54 28° WNW 18:39:40 10° SW
YAOGAN 11 4.2 18:32:38 10° NNE 18:37:05 90° NE 18:41:33 10° SSW
Cosmos 1602 Rocket 3.6 18:33:39 10° N 18:37:58 67° ENE 18:41:56 12° SSE
NOSS 3-4 (A) 3.8 18:33:42 10° NW 18:40:11 88° SW 18:47:25 12° SE
Cosmos 2333 Rocket 2.3 18:35:04 10° NW 18:40:47 79° WSW 18:46:04 12° SSE
NOSS 3-4 (C) 3.8 18:34:19 10° NW 18:40:49 88° SW 18:48:04 12° SE
CZ-4 R/B 4.2 18:41:29 10° W 18:42:23 11° W 18:43:15 10° WNW
USA 245 4.5 18:37:46 10° S 18:43:41 76° WSW 18:49:14 10° NNW
Cosmos 2061 Rocket 4.2 18:40:45 10° SSW 18:46:59 79° WNW 18:53:21 10° N
Cosmos 1933 3.2 18:44:36 10° S 18:48:20 61° E 18:52:08 10° NNE
Cosmos 1464 Rocket 4.4 18:44:19 11° SSE 18:49:58 47° E 18:55:51 10° NNE
Cosmos 44 Rocket 4.4 18:45:28 10° WSW 18:50:30 52° NW 18:55:36 10° NE
ATLAS 2AS CENTAUR R/B 4.0 18:44:58 10° W 18:51:32 45° NNW 18:58:02 10° NE
Cosmos 1626 Rocket 4.3 18:50:20 10° NNW 18:54:33 49° W 18:58:47 10° S
SPOT 3 Rocket 3.9 18:53:07 10° S 18:58:12 61° WSW 19:03:19 10° NNW
Cosmos 1607 4.2 18:52:02 10° SW 18:58:14 77° NW 19:04:34 10° NE
Cosmos 2360 Rocket 2.2 18:53:10 10° NNW 18:58:54 88° ENE 19:03:37 15° SSE
Cosmos 1805 2.7 18:56:36 10° N 18:59:53 82° ENE 19:02:14 18° SSE
Ariane Rocket 3.2 18:57:02 11° S 19:01:50 70° WSW 19:06:55 10° NNW
Cosmos 2098 Rocket 3.3 18:58:40 12° S 19:02:57 56° E 19:07:01 10° NNE
Cosmos 1076 Rocket 4.0 18:58:51 10° N 19:03:00 48° ENE 19:06:00 17° SE
Cosmos 2333 4.3 18:58:05 10° NNW 19:03:50 83° NE 19:08:32 16° SE
Meteor 1-25 Rocket 4.4 18:58:43 10° NNW 19:04:24 74° W 19:09:34 12° S
BREEZE-M DEB (TANK) 2.2 19:03:13 10° WSW 19:05:26 24° S 19:05:38 24° SSE
Cosmos 220 Rocket 4.0 19:04:07 10° S 19:08:04 54° ESE 19:12:05 10° NE
Cosmos 1536 4.1 19:07:03 10° N 19:10:09 25° ENE 19:12:23 15° ESE
Cosmos 2219 Rocket 2.3 19:07:23 10° NNW 19:13:04 76° NE 19:17:33 17° SE
Helios 1A 4.0 19:10:21 10° NE 19:13:41 26° E 19:15:28 19° SE
Cosmos 1606 Rocket 3.7 19:12:21 16° S 19:15:35 55° E 19:19:50 10° NNE
Cosmos 2151 4.1 19:13:25 10° NNW 19:17:16 38° W 19:21:03 10° SSW
Cosmos 1763 Rocket 4.2 19:15:44 17° SSE 19:19:13 36° ESE 19:24:00 10° NE
Helios 1B rocket 3.1 19:18:06 18° ESE 19:20:11 33° ENE 19:23:23 10° N
Okean 1 3.4 19:18:42 21° SSE 19:20:45 47° E 19:24:14 10° NNE
Okean O Rocket 3.8 19:17:50 10° SW 19:20:57 19° W 19:24:07 10° NW
Cosmos 990 Rocket 4.0 19:18:58 10° NNW 19:24:09 80° ENE 19:27:52 19° SSE
Cosmos 1726 Rocket 3.7 19:22:24 20° SSE 19:24:54 49° E 19:28:49 10° NNE
Cosmos 2034 Rocket 4.2 19:22:29 16° SSE 19:27:32 58° E 19:33:45 10° NNE
TSX-5 4.3 19:26:37 10° NNW 19:29:32 36° NE 19:31:39 17° ESE
Cosmos 2322 Rocket 2.6 19:24:17 10° NW 19:29:50 57° WSW 19:33:58 18° S
Okean 1-7 Rocket 3.9 19:25:47 10° NNW 19:30:12 65° W 19:33:33 17° S
Cosmos 1461 2.4 19:26:41 10° SW 19:30:24 79° SE 19:34:04 10° NE
RESURS DK-1 3.6 19:27:09 10° NNW 19:30:49 34° NE 19:34:01 12° ESE
CZ-2C R/B 3.5 19:30:01 15° SSW 19:31:45 28° W 19:34:14 10° NW
CZ-4B R/B 4.5 19:27:58 11° SSW 19:32:16 37° W 19:36:47 10° NNW
Cosmos 1470 4.2 19:29:43 10° NNE 19:32:16 20° ENE 19:33:54 15° ESE
Cosmos 1777 Rocket 4.5 19:30:11 10° NW 19:35:17 53° WSW 19:39:00 18° S
Cosmos 2082 Rocket 3.5 19:30:56 10° WSW 19:36:22 44° NW 19:41:50 10° NNE
Cosmos 1437 Rocket 4.0 19:37:09 10° SW 19:40:28 36° WNW 19:43:51 10° N
Cosmos 1975 4.4 19:38:08 10° NNE 19:41:06 22° ENE 19:43:05 15° ESE
Cosmos 1503 Rocket 4.3 19:37:10 10° NNW 19:42:17 58° WSW 19:45:44 20° S
Cosmos 909 Rocket 4.5 19:36:25 10° WSW 19:42:40 67° NW 19:49:26 10° NE
Nadezhda 4 Rocket 4.2 19:36:51 10° NNW 19:42:54 64° W 19:47:52 16° S
Meteor 1-26 Rocket 4.4 19:42:46 20° SSE 19:46:25 55° E 19:52:00 10° NNE
Cosmos 2237 Rocket 3.6 19:42:41 10° NNW 19:47:50 33° NE 19:52:55 10° ESE
NOSS 3-3 (A) 4.3 19:43:30 10° WSW 19:48:59 65° NNW 19:55:43 10° NE
Cosmos 44 3.5 19:45:35 10° NW 19:51:02 84° SW 19:54:37 21° SE
IKONOS-2 4.5 19:47:17 10° NNE 19:51:25 64° ESE 19:53:46 24° S
Cosmos 1634 Rocket 4.3 19:48:18 21° SSE 19:52:19 51° E 19:58:18 10° NNE
ISS -3.6 19:49:52 10° W 19:53:08 49° S 19:54:30 29° SE
Cosmos 1354 Rocket 4.2 19:50:41 10° NNW 19:55:53 64° WSW 19:59:07 23° S
Cosmos-2242 3.0 19:54:02 26° SSE 19:56:09 58° E 20:00:13 10° NNE
COSMOS 2428 3.1 19:50:55 10° NNW 19:56:36 61° NE 20:00:54 17° SE
SL-16 R/B 3.9 19:54:45 10° NW 19:59:08 23° WSW 20:03:19 11° SSW
USA 306 3.1 19:57:10 10° W 19:58:04 18° W 19:58:04 18° W
CZ-2C R/B 4.2 19:56:03 10° ESE 20:00:17 25° NE 20:04:30 10° N
KORONAS-FOTON 4.2 19:59:46 30° SE 20:00:46 39° E 20:03:58 10° NNE
USA 290 2.1 20:01:14 24° SSW 20:02:59 82° WNW 20:06:08 10° NNE
Cosmos 1707 1.8 20:04:33 46° SSE 20:05:13 68° E 20:08:03 10° NNE
Cosmos 2026 Rocket 4.2 19:59:31 10° NNW 20:05:54 74° W 20:10:23 21° S
CZ-4C R/B 3.8 20:01:13 10° W 20:05:58 38° N 20:12:06 10° ENE
Cosmos 372 Rocket 3.9 20:02:31 10° NNW 20:07:41 84° ENE 20:10:44 25° SSE
Cosmos 1953 Rocket 4.0 20:05:58 10° NNW 20:10:13 52° W 20:12:42 23° SSW
COSMOS 2406 4.3 20:08:48 10° WSW 20:14:19 45° NW 20:19:50 10° NNE
Aureole 1 Rocket 4.0 20:11:07 10° NNW 20:16:36 70° WSW 20:20:45 24° S
Meteor 1-14 Rocket 4.3 20:12:32 10° N 20:18:07 69° ENE 20:21:27 24° SSE
Cosmos 1271 Rocket 3.1 20:19:22 33° SE 20:20:10 39° E 20:23:22 10° NNE
Cosmos 2221 3.4 20:18:37 25° SE 20:20:11 34° E 20:24:00 10° NNE
GP-B 4.4 20:18:29 10° NNE 20:22:20 29° E 20:24:23 20° ESE
Cosmos 540 Rocket 3.4 20:18:42 18° SSW 20:22:38 90° NNW 20:27:49 10° NNE
Cosmos 2058 Rocket 3.0 20:20:44 27° S 20:23:05 89° SE 20:27:27 10° NNE
Cosmos 2333 Rocket 4.2 20:20:35 10° WNW 20:24:13 18° W 20:27:51 10° SW
Cosmos 1937 Rocket 3.6 20:20:21 10° NNW 20:25:30 69° ENE 20:28:40 23° SE
Cosmos 1766 3.8 20:25:12 10° NNW 20:28:12 37° W 20:29:18 27° SW
Geosat 4.0 20:25:10 10° NNE 20:30:13 83° NW 20:34:37 13° SW
Spot 4 3.8 20:28:46 28° SSE 20:31:18 88° WSW 20:36:08 10° NNW
ARGOS Delta rocket 4.4 20:27:57 10° NNE 20:32:58 53° E 20:35:39 27° SSE
BREEZE-M R/B 4.3 20:26:32 10° W 20:33:51 55° SSW 20:39:32 10° ESE
Cosmos 468 Rocket 4.0 20:30:46 25° S 20:33:53 69° ESE 20:39:07 10° NNE
Cosmos 1842 2.6 20:33:12 47° SSE 20:33:57 71° E 20:37:06 10° NNE
Cosmos 1833 4.2 20:29:39 13° SW 20:34:49 83° NW 20:40:29 10° NNE
ARIANE 5 R/B 2.6 20:34:30 30° S 20:36:39 79° WSW 20:41:09 10° NNW
CZ-2C R/B 4.3 20:32:02 10° NNE 20:37:15 35° E 20:40:12 22° SE
Cosmos 2297 Rocket 3.6 20:35:27 19° SE 20:37:30 23° ESE 20:41:50 10° NE
ALOS 2 2.5 20:35:46 31° SSE 20:37:53 90° WSW 20:42:19 10° NNW
Meteor 2-6 Rocket 4.3 20:35:51 25° S 20:39:33 79° E 20:45:32 10° NNE
USA 234 3.8 20:35:46 10° ENE 20:41:43 36° SE 20:44:47 24° S
Cosmos 2360 Rocket 3.9 20:38:03 10° NW 20:42:11 21° W 20:45:21 13° SW
Cosmos 2322 3.8 20:36:34 10° NW 20:42:15 69° WSW 20:45:23 27° SSE
ATLAS 2AS CENTAUR R/B 4.0 20:37:26 10° WNW 20:43:50 40° N 20:50:12 10° ENE
Cosmos 1536 3.7 20:42:06 10° NNW 20:45:28 35° W 20:46:54 25° SW
Helios 1A 3.9 20:44:48 10° N 20:48:29 40° WNW 20:51:10 17° SW
Helios 1B rocket 3.6 20:52:03 21° SW 20:53:14 25° W 20:56:11 10° NW
PSLV R/B 3.6 20:51:14 10° NNE 20:55:29 64° ESE 20:57:18 33° S
Cosmos 2219 Rocket 3.6 20:51:58 10° NW 20:56:28 25° WSW 20:59:14 17° SW
Cosmos 1898 Rocket 3.7 20:52:00 10° NNW 20:57:06 57° WSW 20:59:35 29° S
SeaSat 1 3.1 20:55:07 13° ESE 20:59:19 52° NE 21:04:06 10° NNW
Meteor 1-19 Rocket 4.3 20:57:24 27° S 21:00:39 72° E 21:06:36 10° NNE
Cosmos 1763 Rocket 4.4 20:55:43 10° SW 21:00:50 48° NW 21:05:57 10° NNE
Cosmos 1766 Rocket 4.3 20:57:10 10° N 21:01:19 45° ENE 21:03:33 24° SE
Cosmos 1470 3.3 21:03:15 10° NNW 21:06:18 35° W 21:07:06 30° SW
RESURS DK-1 2.9 21:04:29 10° NW 21:08:14 40° WSW 21:09:14 33° SSW
Cosmos 2322 Rocket 4.4 21:10:47 10° WNW 21:12:40 12° W 21:14:33 10° WSW
NOSS 0 Rocket 4.0 21:06:40 10° NW 21:12:45 61° WSW 21:16:10 27° S
NOSS 8 (H) 4.0 21:11:44 10° NW 21:14:34 61° SW 21:14:47 58° SSW
BREEZE-M DEB (TANK) 3.8 21:09:08 10° W 21:15:30 42° SSW 21:20:21 10° ESE
Cosmos 1975 3.4 21:12:45 10° NNW 21:16:13 39° W 21:17:20 31° SW
MetOp-A 3.8 21:16:05 30° S 21:18:29 75° WSW 21:23:11 10° NNW
Intercosmos 24 3.7 21:14:24 10° N 21:18:35 83° ENE 21:19:54 38° SSE
SL-16 R/B 3.4 21:14:05 10° NNW 21:19:30 42° NE 21:24:52 10° ESE
Lacrosse 4 Rocket 2.8 21:25:45 21° SE 21:26:26 22° ESE 21:29:38 10° ENE
ISS -1.5 21:26:45 10° W 21:27:26 14° WSW 21:27:26 14° WSW
Cosmos 841 Rocket 3.5 21:29:05 26° SSW 21:32:08 84° WNW 21:37:26 10° NNE
Cosmos 2237 Rocket 2.2 21:26:41 10° NW 21:32:22 72° WSW 21:35:41 26° SSE
Cosmos 1812 Rocket 3.8 21:33:38 29° SSW 21:35:44 63° WNW 21:40:09 10° N
Meteor 1-11 Rocket 4.1 21:30:28 10° NNW 21:35:59 53° W 21:38:54 27° SSW
Cosmos 1980 3.8 21:30:48 10° NW 21:36:24 64° WSW 21:39:29 27° S
NOSS 8 (E) 4.1 21:35:03 10° WNW 21:37:54 53° SW 21:38:00 53° SW
Meteor 2-20 Rocket 4.4 21:36:40 27° S 21:39:54 70° E 21:45:35 10° NNE
CZ-2C R/B 2.6 21:37:19 28° S 21:40:07 71° WSW 21:45:20 10° NNW
COSMOS 2428 3.7 21:35:33 10° NW 21:40:32 32° WSW 21:42:51 24° SSW
CZ-4C R/B 4.1 21:38:07 10° NNE 21:41:13 33° E 21:42:10 27° SE
ACS3 Solar Sail 2.6 21:35:39 10° NNE 21:41:15 40° E 21:45:00 20° SSE
Meteor 2-4 Rocket 3.8 21:41:22 27° S 21:44:18 65° E 21:49:48 10° NNE
Meteor 1-10 Rocket 4.5 21:40:49 25° SSW 21:44:27 72° WNW 21:50:25 10° NNE
Cosmos 2227 Rocket 3.3 21:44:30 21° SSE 21:47:16 32° ESE 21:52:15 10° NE
Meteor 2-20 4.5 21:45:33 25° SSW 21:49:16 78° WNW 21:55:23 10° N
Okean 3 Rocket 4.1 21:46:23 10° N 21:50:51 55° ENE 21:53:39 22° SE
Cosmos 1271 Rocket 4.5 21:52:42 14° WSW 21:54:32 20° WNW 21:57:08 10° NNW
CZ-4C R/B 3.9 21:50:04 10° NW 21:55:32 41° NNE 22:02:31 10° E
Cosmos 192 4.3 21:51:38 10° NNW 21:56:36 76° WSW 21:59:22 26° SSE
Cosmos 2221 3.8 21:54:54 18° WSW 21:57:14 31° WNW 22:01:01 10° N
Cosmos 2263 Rocket 3.6 21:56:11 17° SSE 21:59:08 26° ESE 22:03:42 10° NE
GP-B 3.9 21:55:23 10° NNW 21:59:28 39° W 22:01:32 24° SW
Meteor 1-27 Rocket 3.8 21:56:56 26° SSW 22:00:24 78° WNW 22:06:11 10° NNE
Cosmos 1842 Rocket 3.7 22:01:31 29° S 22:03:36 65° E 22:07:59 10° NNE
Cosmos 1238 Rocket 2.9 22:02:31 33° SSW 22:04:12 73° WNW 22:08:35 10° N
Cosmos 1805 Rocket 4.1 22:06:33 10° N 22:10:50 53° ENE 22:13:48 18° SSE
Sich 1 2.8 22:10:00 10° NNW 22:14:11 87° W 22:16:18 28° S
Iridium 4 Rocket 3.7 22:11:57 25° S 22:15:25 88° W 22:21:17 10° N
Landsat 5 3.4 22:13:04 10° NNE 22:17:12 75° WNW 22:19:05 30° SSW
CZ-2C R/B 3.8 22:11:40 10° N 22:17:14 55° WNW 22:21:10 20° SW
SL-19 R/B 4.4 22:19:08 23° SE 22:20:50 53° ENE 22:23:59 10° N
Cosmos 2297 Rocket 2.2 22:17:12 22° SW 22:20:56 81° NW 22:26:38 10° NNE
Cosmos 1745 Rocket 4.5 22:16:47 10° N 22:22:51 58° ENE 22:28:46 11° SSE
Cosmos 1655 Rocket 4.3 22:16:53 10° NNW 22:22:55 53° W 22:26:42 23° SSW
Cosmos 1758 3.0 22:19:50 10° N 22:23:29 88° ENE 22:25:10 30° SSE
USA 234 3.2 22:18:46 10° ENE 22:25:21 79° SSE 22:31:55 10° WSW
Cosmos 1408 Rocket 3.4 22:31:11 10° NNW 22:35:29 90° E 22:38:11 22° S
ATLAS 2AS CENTAUR R/B 3.0 22:28:55 10° NW 22:35:43 71° NE 22:42:30 10° ESE
Cosmos 1340 Rocket 2.7 22:32:59 10° NNW 22:36:51 78° ENE 22:39:16 22° SSE
SeaSat 1 3.1 22:34:43 25° SSW 22:36:51 36° WSW 22:41:22 10° NW
Meteor 2-10 Rocket 4.1 22:32:26 10° NNW 22:37:40 48° W 22:40:59 23° SSW
Iridium 45 4.4 22:37:59 31° S 22:39:32 84° W 22:42:59 10° N
SL-14 R/B 3.1 22:38:08 29° SSW 22:40:00 88° W 22:43:49 10° NNE
EXPRESS MD2 4.4 22:43:31 13° ESE 22:43:31 13° ESE 22:43:57 10° ESE
Cosmos 1125 Rocket 3.5 22:38:59 10° NNW 22:44:17 75° WSW 22:48:46 14° SSE
BlueWalker 3 2.5 22:43:33 30° S 22:44:21 34° SSE 22:47:36 10° E
Cosmos 1066 Rocket 4.3 22:40:54 22° SSW 22:44:22 66° WNW 22:49:54 10° N
Meteor 1-18 Rocket 4.3 22:49:51 21° SSW 22:53:37 71° WNW 22:59:18 10° N
DELTA 2 DEB (DPAF) 4.1 22:50:39 10° N 22:54:06 48° WNW 22:55:55 24° SW
Cosmos 2084 3.3 22:50:54 10° NW 22:54:58 57° SW 22:59:00 10° SSE
Cosmos 1814 Rocket 4.2 22:59:05 20° SW 23:02:44 66° WNW 23:07:59 10° NNE
Cosmos 1953 2.7 22:59:48 10° N 23:03:25 54° ENE 23:06:54 10° SSE
SL-16 R/B 2.4 22:58:15 10° NW 23:03:46 52° WSW 23:08:39 13° S
Lacrosse 4 Rocket 1.6 23:01:08 19° WSW 23:03:52 61° NW 23:07:57 10° NE
BREEZE-M DEB (TANK) 3.6 23:07:01 24° SSW 23:07:24 24° S 23:11:48 10° SE
CZ-2D R/B 4.3 23:04:31 10° NE 23:08:31 21° E 23:12:30 10° SE
IDEFIX/ARIANE 42P 2.9 23:03:19 10° NNE 23:08:31 62° ESE 23:12:47 15° S
Cosmos 2219 3.8 23:04:46 16° S 23:09:00 47° ESE 23:14:21 10° NE
NPP 4.2 23:08:23 10° NNE 23:13:42 54° E 23:18:30 12° S
Cosmos 2237 Rocket 3.9 23:12:16 10° WNW 23:15:26 15° W 23:17:27 13° WSW
H-2A R/B 4.3 23:12:23 10° NE 23:16:20 20° E 23:20:18 10° SE
Cosmos 1633 Rocket 3.5 23:13:36 10° N 23:17:54 62° ENE 23:22:11 10° SSE
Cosmos 1151 Rocket 3.2 23:15:33 20° SSW 23:18:22 61° WNW 23:22:41 10° N
Cosmos 1500 Rocket 4.2 23:15:53 10° NNW 23:20:02 39° W 23:22:48 19° SSW
S3M 4.0 23:14:46 14° S 23:20:08 81° E 23:26:19 10° NNE
PSLV R/B 4.3 23:18:04 10° N 23:21:50 48° WNW 23:24:24 19° SW
ACS3 Solar Sail 2.3 23:18:02 10° N 23:23:43 48° WNW 23:28:30 15° SW
CENTAUR R/B 4.0 23:20:33 10° SSE 23:25:09 26° ESE 23:30:38 10° ENE
Meteor 1-22 Rocket 4.3 23:19:20 10° NNW 23:25:12 74° W 23:30:47 10° S
Cosmos 2315 Rocket 4.2 23:22:19 12° S 23:28:19 76° E 23:34:39 10° NNE
Cosmos 2227 Rocket 2.5 23:26:17 15° SW 23:31:02 61° NW 23:36:40 10° NNE
DMSP B5D2-2 4.4 23:26:59 10° SSE 23:32:09 68° ENE 23:37:22 10° NNW
H-2A R/B 3.8 23:31:03 10° SE 23:34:17 33° ENE 23:37:35 10° N
Envisat 4.2 23:31:23 10° NNE 23:36:07 38° E 23:40:49 10° SSE
Cosmos 2263 Rocket 2.3 23:37:50 15° SW 23:42:35 72° NW 23:48:11 10° NNE
BREEZE-M DEB (TANK) 3.1 23:36:00 10° WSW 23:44:07 47° S 23:47:17 10° ESE
MSX 3.9 23:38:28 10° NNE 23:44:16 78° WNW 23:49:33 13° SSW
CZ-4C R/B 3.0 23:38:14 10° NW 23:44:37 78° NE 23:52:51 10° SE
Cosmos 1709 Rocket 4.2 23:39:22 10° NNW 23:45:23 56° W 23:51:26 10° S
SL-16 R/B 4.4 23:41:56 10° ESE 23:47:27 35° NE 23:52:59 10° N
Cosmos 1666 Rocket 3.7 23:45:01 10° NNW 23:49:25 59° W 23:53:46 10° S
Cosmos 1943 3.3 23:44:01 10° NW 23:49:32 57° WSW 23:55:00 10° SSE
Meteor 1-15 Rocket 4.4 23:45:25 10° NNW 23:51:18 67° W 23:57:10 10° S
Cosmos 1867 3.5 23:46:12 10° NW 23:51:39 70° SW 23:57:04 10° SSE
NOSS 7 (H) 4.4 23:52:14 10° WNW 23:55:03 41° SW 23:57:58 10° SSE
